Content
SEND FEEDBACK

Daily
Averages
Monthly
Summary
United States of America

AUBURN, CALIFORNIA


Home > North America > United States > California
Elevation: 1279 feet     Latitude: 38 53N     Longitude: 121 04W

WEATHER
 
SELECT A DAY
Number of Records: 293,130;   Date Range: 8/19/02 - 9/16/14
 
SHARE

PRINT THIS DATA

[ ← Previous Day ]
WEATHER ALMANAC - MARCH 14, 2013
[ Next Day → ]
[ °C ]   °F
Weather ElementAverageHighLow
Temperature64.9 °F73.4 °F (12:35 pm)55.4 °F (11:35 pm)
Dewpoint44.8 °F51.8 °F (2:15 pm)37.4 °F (6:15 am)
Humidity49.1 %72 % (7:55 pm)35 % (10:15 am)
Barometer30.13 in30.17 in (11:15 am)30.10 in (5:35 am)
Wind Speed3.8 mph11.5 mph (5:35 am)
Weather ElementAverage
Visibility10 mi
Wind DirectionENE (81.4 °)

Weather ElementTotal
Precipitation---
Heating Degree Days0.6 (Base 65)
Growing Degree Days14.4 (Base 50)
Averaged from 59 records on March 14, 2013
WEATHER CONDITIONS BREAKOUT
WIND DIRECTION BREAKOUT
WEATHER BY HOUR - MARCH 14, 2013
[ °C ]   °F
Local TimeTemperatureDewpointHumidityBarometerVisibilityWind DirectionWind SpeedGust SpeedPrecipitationEventsConditions
12:55 AM60.8 °F44.6 °F55 %30.12 in10.0 miEast (100°)6.9 mphClear
1:15 AM60.8 °F44.6 °F55 %30.12 in10.0 miEast (100°)4.6 mphClear
1:35 AM60.8 °F42.8 °F52 %30.13 in10.0 miEast (100°)4.6 mphClear
1:55 AM59.0 °F42.8 °F55 %30.12 in10.0 miEast (100°)6.9 mphClear
2:15 AM60.8 °F42.8 °F52 %30.12 in10.0 miEast (90°)8.1 mphClear
2:35 AM60.8 °F42.8 °F52 %30.13 in10.0 miEast (100°)6.9 mphClear
3:15 AM59.0 °F42.8 °F55 %30.13 in10.0 miESE (110°)6.9 mphClear
3:35 AM59.0 °F42.8 °F55 %30.12 in10.0 miESE (110°)6.9 mphClear
4:15 AM60.8 °F41.0 °F48 %30.11 in10.0 miEast (90°)8.1 mphClear
4:35 AM59.0 °F41.0 °F51 %30.11 in10.0 miEast (90°)8.1 mphClear
4:55 AM60.8 °F39.2 °F45 %30.11 in10.0 miEast (90°)9.2 mphClear
5:15 AM59.0 °F39.2 °F48 %30.11 in10.0 miEast (100°)8.1 mphClear
5:35 AM59.0 °F39.2 °F48 %30.10 in10.0 miEast (100°)11.5 mphClear
5:55 AM59.0 °F39.2 °F48 %30.11 in10.0 miEast (100°)10.4 mphClear
6:15 AM60.8 °F37.4 °F42 %30.11 in10.0 miEast (90°)9.2 mphClear
6:35 AM60.8 °F37.4 °F42 %30.11 in10.0 miEast (100°)8.1 mphClear
7:15 AM59.0 °F37.4 °F45 %30.12 in10.0 miEast (90°)5.8 mphClear
7:35 AM57.2 °F37.4 °F48 %30.12 in10.0 miESE (110°)5.8 mphClear
8:15 AM57.2 °F37.4 °F48 %30.12 in10.0 miESE (120°)5.8 mphClear
8:35 AM60.8 °F39.2 °F45 %30.12 in10.0 miESE (110°)8.1 mphClear
9:15 AM62.6 °F39.2 °F42 %30.14 in10.0 miEast (100°)3.5 mphClear
9:35 AM64.4 °F39.2 °F40 %30.15 in10.0 miESE (110°)5.8 mphClear
9:55 AM66.2 °F41.0 °F40 %30.15 in10.0 miESE (110°)4.6 mphClear
10:15 AM69.8 °F41.0 °F35 %30.16 in10.0 miSE (140°)3.5 mphClear
10:35 AM69.8 °F41.0 °F35 %30.16 in10.0 miSSE (160°)3.5 mphClear
10:55 AM69.8 °F42.8 °F38 %30.16 in10.0 miCalmClear
11:15 AM69.8 °F42.8 °F38 %30.17 in10.0 miCalmClear
11:35 AM71.6 °F44.6 °F38 %30.17 in10.0 miSSW (200°)4.6 mphClear
11:55 AM71.6 °F44.6 °F38 %30.17 in10.0 miSSW (210°)3.5 mphClear
12:15 PM71.6 °F44.6 °F38 %30.17 in10.0 miCalmClear
12:35 PM73.4 °F46.4 °F38 %30.16 in10.0 miCalmClear
12:55 PM73.4 °F46.4 °F38 %30.16 in10.0 miSSW (210°)6.9 mphClear
1:15 PM73.4 °F46.4 °F38 %30.16 in10.0 miSSW (200°)5.8 mphClear
1:35 PM73.4 °F48.2 °F41 %30.16 in10.0 miWSW (250°)6.9 mphClear
2:15 PM73.4 °F51.8 °F47 %30.16 in10.0 miWest (260°)5.8 mphClear
2:35 PM73.4 °F51.8 °F47 %30.15 in10.0 miSW (230°)5.8 mphClear
2:55 PM71.6 °F48.2 °F43 %30.15 in10.0 miCalmClear
3:15 PM71.6 °F48.2 °F43 %30.15 in10.0 miCalmClear
3:35 PM71.6 °F48.2 °F43 %30.13 in10.0 miCalmClear
3:55 PM73.4 °F48.2 °F41 %30.14 in10.0 miWest (260°)3.5 mphClear
4:15 PM73.4 °F51.8 °F47 %30.14 in10.0 miWest (260°)5.8 mphClear
4:35 PM71.6 °F50.0 °F46 %30.14 in10.0 miCalmClear
5:15 PM71.6 °F48.2 °F43 %30.13 in10.0 miCalmClear
5:35 PM73.4 °F48.2 °F41 %30.13 in10.0 miCalmClear
6:15 PM69.8 °F48.2 °F46 %30.13 in10.0 miCalmClear
6:35 PM68.0 °F50.0 °F52 %30.12 in10.0 miCalmClear
6:55 PM66.2 °F50.0 °F56 %30.11 in10.0 miCalmClear
7:15 PM66.2 °F50.0 °F56 %30.11 in10.0 miCalmClear
7:35 PM62.6 °F50.0 °F63 %30.11 in10.0 miCalmClear
7:55 PM60.8 °F51.8 °F72 %30.11 in10.0 miCalmClear
8:15 PM60.8 °F48.2 °F63 %30.10 in10.0 miCalmClear
8:35 PM64.4 °F48.2 °F56 %30.12 in10.0 miCalmClear
9:15 PM60.8 °F48.2 °F63 %30.12 in10.0 miCalmClear
9:55 PM57.2 °F48.2 °F72 %30.12 in10.0 miCalmClear
10:15 PM60.8 °F48.2 °F63 %30.12 in10.0 miCalmClear
10:35 PM57.2 °F46.4 °F67 %30.13 in10.0 miCalmClear
10:55 PM60.8 °F46.4 °F59 %30.12 in10.0 miCalmClear
11:35 PM55.4 °F46.4 °F72 %30.12 in10.0 miCalmClear
11:55 PM55.4 °F46.4 °F72 %30.12 in10.0 miEast (100°)5.8 mphClear
Hourly data recorded from KAUN, located miles away from Auburn, California







STORIES FROM OUR PARTNERS